Regional Weather Roundup
Issued by NWS State College, PA

Home | Current Version | Previous Version | Text Only | Print | Product List | Glossary Off
Versions: 1 2 3 4 5 6 7 8 9 10 11 12 13 14 15 16 17 18 19 20 21 22 23 24 25 26 27 28 29 30 31 32 33 34 35 36 37 38 39 40 41 42 43 44 45 46 47 48 49 50

000
ASUS41 KCTP 300503
RWRCTP

REGIONAL WEATHER ROUNDUP
NATIONAL WEATHER SERVICE STATE COLLEGE PA
1200 AM EST FRI JAN 30 2015

Note: "fair" indicates few or no clouds below 12,000 feet with no
significant weather and/or obstructions to visibility.

* = STATION THAT DOES NOT REPORT PRECIPITATION /E.G. RAIN...SNOW...ETC/
    THUNDER OR FOG.

PAZ002>004-007>009-013>016-020>023-029>032-300600-
WESTERN PENNSYLVANIA

CITY           SKY/WX    TMP DP  RH WIND       PRES   REMARKS
ERIE           CLOUDY    30  26  85 W12G20    29.94R FOG
MEADVILLE      CLOUDY    27  24  89 W10       29.92R FOG
FRANKLIN*      CLOUDY    27  23  86 NW12G20   29.91S
NEW CASTLE     LGT SNOW  29  26  88 W7        29.97S FOG
BEAVER COUNTY  NOT AVBL
BUTLER*        CLOUDY    30  27  86 W12G22    29.94S
PITTSBURGH INT LGT SNOW  31  29  92 W14       29.95R VSB 1
PITTSBURGH     LGT SNOW  31  26  82 NW10G28   29.93R
INDIANA*       CLOUDY    32  30  93 NW16G25   29.91R
LATROBE        LGT RAIN  32  32 100 W10G20    29.93R
WASHINGTON CO* CLOUDY    32  27  80 W12       29.98R
$$

PAZ004>006-010>012-017>019-024>028-033>037-041-042-045-046-049>053-300600-
CENTRAL PENNSYLVANIA

CITY           SKY/WX    TMP DP  RH WIND       PRES   REMARKS
BRADFORD       LGT SNOW  26  21  81 W14G29    29.78R WCI  14
DUBOIS         LGT SNOW  30  25  81 W18G26    29.82R
CLEARFIELD     MIX PCPN  32  27  81 W17G25    29.81S
JOHNSTOWN      MIX PCPN  30  27  88 W22G32    29.81R
ALTOONA        LGT SNOW  32  28  85 SW12      29.83F FOG
STATE COLLEGE  LGT SNOW  26  25  95 SW3       29.84S
WILLIAMSPORT   FLURRIES  28  22  78 N3        29.88F
SELINSGROVE    CLOUDY    28  24  85 SW5       29.91F
FT INDIANTOWN  MOCLDY    26  24  93 N3        29.92F
CAPITAL CITY   CLOUDY    29  25  85 CALM      29.93F
HARRISBURG     CLOUDY    29  25  85 E3        29.92F
YORK           CLOUDY    31  26  82 CALM      29.91F
$$

PAZ038>040-043-044-047-048-054-055-060>062-067>071-300600-
EASTERN PENNSYLVANIA

CITY           SKY/WX    TMP DP  RH WIND       PRES   REMARKS
SCRANTON       LGT SNOW  28  21  75 SW6       29.86F
MOUNT POCONO   CLOUDY    23  20  88 S6        29.83F FOG
ALLENTOWN      LGT SNOW  29  24  82 CALM      29.94F
QUAKERTOWN*    CLOUDY    28  27  93 SE3       29.94F
READING        CLOUDY    30  24  78 CALM      29.93F
LANCASTER      CLOUDY    29  24  82 CALM      29.93F
COATESVILLE    CLOUDY    32  25  74 S5        29.92F
POTTSTOWN      CLOUDY    29  25  85 VRB3      29.95F
BLUE BELL      CLOUDY    32  27  80 SE3       29.94F
DOYLESTOWN     FLURRIES  27  25  92 VRB3      29.94F
WILLOW GROVE   NOT AVBL
NORTH PHILA    CLOUDY    33  23  66 SE5       29.98F
PHILADELPHIA   CLOUDY    34  21  59 SE3       29.97F
$$



USA.gov is the U.S. government's official web portal to all federal, state and local government web resources and services.